Weather History for Roxboro, NC

Change the Weather History Date:

Monday, January 21, 2013

  Actual Average Record
Temperature  
Mean Temperature 42 °F -  
Max Temperature 57 °F 46 °F 70 °F (1959)
Min Temperature 26 °F 23 °F -9 °F (1985)
Degree Days  
Heating Degree Days 24    
Moisture  
Dew Point 26 °F    
Average Humidity 61    
Maximum Humidity 100    
Minimum Humidity 29    
Precipitation  
Precipitation 0.00 in - - ()
Sea Level Pressure  
Sea Level Pressure 30.00 in    
Wind  
Wind Speed 2 mph (WSW)    
Max Wind Speed 13 mph    
Max Gust Speed 22 mph    
Visibility 10 miles    
Events      
Averages and records for this station are not official NWS values.
T = Trace of Precipitation, MM = Missing Value Source: NWS Daily Summary

Daily Weather History Graph

Daily Weather History Graph

Search for Another Location

Airport:

Trip Planner

Search our weather history database for the weather conditions in past years. The results will help you decide how hot, cold, wet, or windy it might be!

Date:

Astronomy

Jan. 21, 2013 Rise Set
Actual Time 7:24 AM EST 5:31 PM EST
Civil Twilight 6:56 AM EST 5:58 PM EST
Nautical Twilight 6:25 AM EST 6:30 PM EST
Astronomical Twilight 5:54 AM EST 7:00 PM EST
Moon 1:10 PM EST 2:50 AM EST
Length of Visible Light 11h 02m
Length of Day
10h 06m
Waxing Gibbous, 75% of the Moon is Illuminated
Jan 21
Waxing Gibbous
Jan 26
Full
Feb 3
Last Quarter
Feb 10
New
Feb 17
First Quarter

Hourly Weather History & Observations

Time (EST) Temp. Windchill Dew Point Humidity Pressure Visibility Wind Dir Wind Speed Gust Speed Precip Events Conditions
12:15 AM 32.0 °F - 30.2 °F 93% 30.10 in 10.0 mi Calm Calm - N/A   Clear
12:35 AM 32.0 °F - 32.0 °F 100% 30.09 in 10.0 mi Calm Calm - N/A   Clear
12:55 AM 32.0 °F - 30.2 °F 93% 30.09 in 10.0 mi Calm Calm - N/A   Clear
1:15 AM 32.0 °F - 32.0 °F 100% 30.08 in 10.0 mi Calm Calm - N/A   Clear
1:35 AM 32.0 °F - 30.2 °F 93% 30.09 in 10.0 mi Calm Calm - N/A   Clear
1:55 AM 30.2 °F - 30.2 °F 100% 30.09 in 10.0 mi Calm Calm - N/A   Clear
2:15 AM 30.2 °F - 30.2 °F 100% 30.10 in 10.0 mi Calm Calm - N/A   Clear
2:35 AM 30.2 °F - 30.2 °F 100% 30.09 in 10.0 mi Calm Calm - N/A   Clear
2:55 AM 30.2 °F - 30.2 °F 100% 30.09 in 10.0 mi Calm Calm - N/A   Clear
3:15 AM 30.2 °F - 30.2 °F 100% 30.09 in 10.0 mi Calm Calm - N/A   Clear
3:35 AM 28.4 °F - 28.4 °F 100% 30.09 in 10.0 mi Calm Calm - N/A   Clear
3:55 AM 30.2 °F - 30.2 °F 100% 30.08 in 10.0 mi Calm Calm - N/A   Clear
4:15 AM 28.4 °F - 28.4 °F 100% 30.08 in 10.0 mi Calm Calm - N/A   Clear
4:35 AM 28.4 °F - 28.4 °F 100% 30.08 in 10.0 mi Calm Calm - N/A   Clear
4:55 AM 28.4 °F - 28.4 °F 100% 30.08 in 10.0 mi Calm Calm - N/A   Clear
5:15 AM 28.4 °F - 28.4 °F 100% 30.08 in 10.0 mi Calm Calm - N/A   Clear
5:35 AM 28.4 °F - 28.4 °F 100% 30.08 in 10.0 mi Calm Calm - N/A   Clear
5:55 AM 26.6 °F - 26.6 °F 100% 30.08 in 10.0 mi Calm Calm - N/A   Clear
6:15 AM 28.4 °F - 28.4 °F 100% 30.08 in 10.0 mi Calm Calm - N/A   Clear
6:35 AM 26.6 °F - 26.6 °F 100% 30.08 in 10.0 mi Calm Calm - N/A   Clear
6:55 AM 26.6 °F - 26.6 °F 100% 30.08 in 10.0 mi Calm Calm - N/A   Clear
7:15 AM 26.6 °F - 26.6 °F 100% 30.08 in 10.0 mi Calm Calm - N/A   Clear
7:35 AM 26.6 °F - 26.6 °F 100% 30.08 in 10.0 mi Calm Calm - N/A   Clear
7:55 AM 26.6 °F - 26.6 °F 100% 30.08 in 10.0 mi Calm Calm - N/A   Clear
8:15 AM 28.4 °F - 28.4 °F 100% 30.08 in 10.0 mi Calm Calm - N/A   Clear
8:35 AM 30.2 °F - 30.2 °F 100% 30.08 in 10.0 mi Calm Calm - N/A   Clear
8:55 AM 32.0 °F - 32.0 °F 100% 30.07 in 10.0 mi Calm Calm - N/A   Clear
9:15 AM 35.6 °F - 33.8 °F 93% 30.07 in 10.0 mi Calm Calm - N/A   Clear
9:35 AM 41.0 °F - 33.8 °F 76% 30.07 in 10.0 mi Calm Calm - N/A   Clear
9:55 AM 42.8 °F - 32.0 °F 66% 30.07 in 10.0 mi Calm Calm - N/A   Clear
10:15 AM 44.6 °F - 26.6 °F 49% 30.07 in 10.0 mi Calm Calm - N/A   Clear
10:35 AM 46.4 °F - 24.8 °F 43% 30.07 in 10.0 mi Calm Calm - N/A   Clear
10:55 AM 46.4 °F 45.2 °F 24.8 °F 43% 30.07 in 10.0 mi SSE 3.5 mph - N/A   Clear
11:15 AM 48.2 °F - 24.8 °F 40% 30.05 in 10.0 mi SSE 3.5 mph - N/A   Clear
11:35 AM 50.0 °F - 24.8 °F 37% 30.03 in 10.0 mi South 5.8 mph - N/A   Clear
11:55 AM 50.0 °F - 26.6 °F 40% 30.02 in 10.0 mi Calm Calm - N/A   Clear
12:15 PM 51.8 °F - 24.8 °F 35% 30.01 in 10.0 mi Calm Calm - N/A   Clear
12:35 PM 51.8 °F - 26.6 °F 38% 29.99 in 10.0 mi South 4.6 mph - N/A   Clear
12:55 PM 53.6 °F - 26.6 °F 35% 29.97 in 10.0 mi North - - N/A   Clear
1:15 PM 53.6 °F - 26.6 °F 35% 29.96 in 10.0 mi SSW 4.6 mph - N/A   Clear
1:35 PM 55.4 °F - 26.6 °F 33% 29.94 in 10.0 mi West 11.5 mph 18.4 mph N/A   Clear
1:55 PM 55.4 °F - 26.6 °F 33% 29.92 in 10.0 mi SW 9.2 mph - N/A   Clear
2:15 PM 55.4 °F - 28.4 °F 36% 29.91 in 10.0 mi WSW 11.5 mph 18.4 mph N/A   Clear
2:35 PM 55.4 °F - 26.6 °F 33% 29.91 in 10.0 mi WSW 12.7 mph 20.7 mph N/A   Clear
2:55 PM 57.2 °F - 26.6 °F 31% 29.90 in 10.0 mi SW 9.2 mph - N/A   Clear
3:15 PM 57.2 °F - 28.4 °F 33% 29.89 in 10.0 mi SW 10.4 mph 19.6 mph N/A   Clear
3:35 PM 57.2 °F - 26.6 °F 31% 29.89 in 10.0 mi WSW 11.5 mph 17.3 mph N/A   Clear
3:55 PM 55.4 °F - 28.4 °F 36% 29.88 in 10.0 mi WSW 10.4 mph 21.9 mph N/A   Clear
4:15 PM 55.4 °F - 28.4 °F 36% 29.88 in 10.0 mi WSW 11.5 mph 19.6 mph N/A   Clear
4:35 PM 55.4 °F - 28.4 °F 36% 29.87 in 10.0 mi West 6.9 mph 18.4 mph N/A   Clear
4:55 PM 55.4 °F - 26.6 °F 33% 29.87 in 10.0 mi WSW 9.2 mph 17.3 mph N/A   Clear
5:15 PM 53.6 °F - 28.4 °F 38% 29.87 in 10.0 mi WSW 6.9 mph - N/A   Clear
5:35 PM 53.6 °F - 28.4 °F 38% 29.87 in 10.0 mi WSW 4.6 mph - N/A   Clear
5:55 PM 51.8 °F - 28.4 °F 41% 29.88 in 10.0 mi WSW 4.6 mph - N/A   Clear
6:15 PM 51.8 °F - 28.4 °F 41% 29.88 in 10.0 mi WSW 4.6 mph - N/A   Clear
6:35 PM 51.8 °F - 26.6 °F 38% 29.89 in 10.0 mi West 8.1 mph - N/A   Clear
6:55 PM 51.8 °F - 23.0 °F 33% 29.89 in 10.0 mi West 9.2 mph - N/A   Clear
7:15 PM 50.0 °F - 21.2 °F 32% 29.90 in 10.0 mi West 6.9 mph 20.7 mph N/A   Clear
7:35 PM 48.2 °F - 21.2 °F 34% 29.91 in 10.0 mi WNW 6.9 mph - N/A   Clear
7:55 PM 48.2 °F - 19.4 °F 32% 29.92 in 10.0 mi West 8.1 mph 21.9 mph N/A   Clear
8:15 PM 46.4 °F 44.3 °F 19.4 °F 34% 29.93 in 10.0 mi WNW 4.6 mph - N/A   Clear
8:35 PM 46.4 °F 42.9 °F 17.6 °F 32% 29.93 in 10.0 mi West 6.9 mph 19.6 mph N/A   Clear
8:55 PM 44.6 °F 40.7 °F 15.8 °F 31% 29.94 in 10.0 mi West 6.9 mph 19.6 mph N/A   Clear
9:15 PM 44.6 °F 38.8 °F 14.0 °F 29% 29.94 in 10.0 mi WNW 11.5 mph 19.6 mph N/A   Clear
9:35 PM 42.8 °F 38.0 °F 14.0 °F 31% 29.94 in 10.0 mi West 8.1 mph - N/A   Clear
9:55 PM 42.8 °F 38.6 °F 14.0 °F 31% 29.95 in 10.0 mi WNW 6.9 mph 18.4 mph N/A   Clear
10:15 PM 42.8 °F 38.0 °F 14.0 °F 31% 29.95 in 10.0 mi WNW 8.1 mph - N/A   Clear
10:35 PM 41.0 °F 38.0 °F 14.0 °F 33% 29.95 in 10.0 mi WNW 4.6 mph - N/A   Clear
10:55 PM 41.0 °F - 14.0 °F 33% 29.96 in 10.0 mi Calm Calm - N/A   Clear
11:15 PM 39.2 °F 37.0 °F 14.0 °F 36% 29.96 in 10.0 mi WSW 3.5 mph - N/A   Clear
11:35 PM 39.2 °F - 14.0 °F 36% 29.96 in 10.0 mi Calm Calm - N/A   Clear
11:55 PM 37.4 °F 32.8 °F 14.0 °F 38% 29.96 in 10.0 mi West 5.8 mph - N/A   Clear